"read_dt","SO2 (ppb)","flags","PMT voltage (V)","lamp voltage (V)","lamp intensity (Hz)","internal temp (C)","react chamber temp (C)","sample flow (l/min)","pres (mmHg)","SO2 bkg (ppb)","SO2 coefficient"
2016-08-25 00:00:00,2087E-3,5C000400,-0723,0826,12317,029.5,045.5,0.252,737.9,01.18,0.508
2016-08-25 00:01:00,2036E-3,5C000400,-0723,0826,12252,029.6,045.5,0.252,737.9,01.18,0.508
2016-08-25 00:02:00,2053E-3,5C000400,-0724,0826,12180,029.6,045.5,0.252,737.8,01.18,0.508
2016-08-25 00:03:00,2073E-3,5C000400,-0723,0825,12178,029.5,045.5,0.251,737.8,01.18,0.508
2016-08-25 00:04:00,2215E-3,5C000400,-0723,0826,12165,029.5,045.5,0.252,737.9,01.18,0.508
2016-08-25 00:05:00,1990E-3,5C000400,-0723,0826,12158,029.5,045.5,0.252,737.8,01.18,0.508
2016-08-25 00:06:00,2031E-3,5C000400,-0724,0826,12330,029.6,045.5,0.252,737.8,01.18,0.508
2016-08-25 00:07:00,1912E-3,5C000400,-0724,0825,12231,029.5,045.5,0.251,737.8,01.18,0.508
2016-08-25 00:08:00,1902E-3,5C000400,-0723,0826,12045,029.6,045.5,0.252,737.8,01.18,0.508
2016-08-25 00:09:00,1919E-3,5C000400,-0723,0825,12077,029.5,045.5,0.252,737.8,01.18,0.508
2016-08-25 00:10:00,2077E-3,5C000400,-0724,0825,12273,029.6,045.5,0.252,737.8,01.18,0.508
2016-08-25 00:11:00,2108E-3,5C000400,-0724,0825,12111,029.6,045.5,0.252,737.8,01.18,0.508
2016-08-25 00:12:00,2073E-3,5C000400,-0723,0826,12240,029.6,045.5,0.252,737.7,01.18,0.508
2016-08-25 00:13:00,2099E-3,5C000400,-0723,0825,12146,029.6,045.5,0.252,737.8,01.18,0.508
2016-08-25 00:14:00,1985E-3,5C000400,-0723,0825,12213,029.6,045.5,0.252,737.7,01.18,0.508
2016-08-25 00:15:00,1974E-3,5C000400,-0724,0826,12210,029.6,045.5,0.251,737.8,01.18,0.508
2016-08-25 00:16:00,2079E-3,5C000400,-0724,0825,12259,029.6,045.5,0.252,737.8,01.18,0.508
2016-08-25 00:17:00,1924E-3,5C000400,-0724,0825,12294,029.5,045.5,0.252,737.7,01.18,0.508
2016-08-25 00:18:00,1996E-3,5C000400,-0724,0825,12234,029.6,045.5,0.252,737.7,01.18,0.508
2016-08-25 00:19:00,2068E-3,5C000400,-0723,0826,12254,029.6,045.5,0.252,737.7,01.18,0.508
2016-08-25 00:20:00,2198E-3,5C000400,-0724,0826,12162,029.6,045.5,0.252,737.8,01.18,0.508
2016-08-25 00:21:00,2046E-3,5C000400,-0723,0827,12289,029.6,045.5,0.252,737.8,01.18,0.508
2016-08-25 00:22:00,2054E-3,5C000400,-0723,0826,12021,029.6,045.5,0.252,737.8,01.18,0.508
2016-08-25 00:23:00,2140E-3,5C000400,-0724,0825,12125,029.6,045.5,0.252,737.7,01.18,0.508
2016-08-25 00:24:00,2095E-3,5C000400,-0724,0826,12306,029.6,045.5,0.252,737.8,01.18,0.508
2016-08-25 00:25:00,2074E-3,5C000400,-0724,0825,12248,029.6,045.5,0.252,737.7,01.18,0.508
2016-08-25 00:26:00,2092E-3,5C000400,-0724,0826,12216,029.6,045.5,0.251,737.7,01.18,0.508
2016-08-25 00:27:00,1924E-3,5C000400,-0724,0825,12047,029.6,045.5,0.252,737.8,01.18,0.508
2016-08-25 00:28:00,2131E-3,5C000400,-0724,0826,12241,029.6,045.5,0.252,737.8,01.18,0.508
2016-08-25 00:29:00,1965E-3,5C000400,-0723,0826,12391,029.6,045.5,0.252,737.7,01.18,0.508
2016-08-25 00:30:00,2041E-3,5C000400,-0724,0825,12201,029.6,045.5,0.251,737.7,01.18,0.508
2016-08-25 00:31:00,1903E-3,5C000400,-0724,0825,12234,029.6,045.5,0.252,737.7,01.18,0.508
2016-08-25 00:32:00,2133E-3,5C000400,-0724,0825,12318,029.6,045.5,0.252,737.7,01.18,0.508
2016-08-25 00:33:00,2087E-3,5C000400,-0724,0825,12002,029.6,045.5,0.252,737.7,01.18,0.508
2016-08-25 00:34:00,1913E-3,5C000400,-0724,0826,12250,029.6,045.5,0.251,737.7,01.18,0.508
2016-08-25 00:35:00,2118E-3,5C000400,-0723,0826,12271,029.6,045.5,0.252,737.7,01.18,0.508
2016-08-25 00:36:00,2047E-3,5C000400,-0724,0826,12227,029.6,045.5,0.252,737.7,01.18,0.508
2016-08-25 00:37:00,2034E-3,5C000400,-0723,0826,12360,029.6,045.5,0.252,737.6,01.18,0.508
2016-08-25 00:38:00,2085E-3,5C000400,-0724,0825,12029,029.6,045.5,0.251,737.7,01.18,0.508
2016-08-25 00:39:00,2043E-3,5C000400,-0724,0826,12006,029.6,045.5,0.252,737.7,01.18,0.508
2016-08-25 00:40:00,2035E-3,5C000400,-0724,0826,12297,029.6,045.5,0.252,737.7,01.18,0.508
2016-08-25 00:41:00,2022E-3,5C000400,-0724,0826,12196,029.6,045.5,0.252,737.6,01.18,0.508
2016-08-25 00:42:00,2117E-3,5C000400,-0724,0826,12222,029.6,045.5,0.251,737.7,01.18,0.508
2016-08-25 00:43:00,2020E-3,5C000400,-0724,0827,12351,029.6,045.5,0.252,737.7,01.18,0.508
2016-08-25 00:44:00,1962E-3,5C000400,-0724,0826,12330,029.6,045.5,0.252,737.6,01.18,0.508
2016-08-25 00:45:00,2053E-3,5C000400,-0723,0825,12163,029.6,045.5,0.252,737.6,01.18,0.508
2016-08-25 00:46:00,1963E-3,5C000400,-0723,0826,12222,029.6,045.5,0.252,737.6,01.18,0.508
2016-08-25 00:47:00,2028E-3,5C000400,-0723,0826,12256,029.6,045.5,0.251,737.7,01.18,0.508
2016-08-25 00:48:00,1989E-3,5C000400,-0723,0826,12397,029.6,045.5,0.252,737.7,01.18,0.508
2016-08-25 00:49:00,2061E-3,5C000400,-0724,0826,12165,029.6,045.5,0.252,737.7,01.18,0.508
2016-08-25 00:50:00,2070E-3,5C000400,-0723,0827,12134,029.6,045.5,0.251,737.7,01.18,0.508
2016-08-25 00:51:00,2074E-3,5C000400,-0724,0827,12277,029.6,045.5,0.252,737.6,01.18,0.508
2016-08-25 00:52:00,2001E-3,5C000400,-0723,0825,12250,029.6,045.5,0.252,737.6,01.18,0.508
2016-08-25 00:53:00,2164E-3,5C000400,-0723,0826,12258,029.6,045.5,0.252,737.6,01.18,0.508
2016-08-25 00:54:00,2101E-3,5C000400,-0724,0825,12222,029.6,045.5,0.251,737.6,01.18,0.508
2016-08-25 00:55:00,2049E-3,5C000400,-0723,0826,12261,029.6,045.5,0.252,737.7,01.18,0.508
2016-08-25 00:56:00,1998E-3,5C000400,-0723,0826,12170,029.7,045.5,0.252,737.7,01.18,0.508
2016-08-25 00:57:00,2235E-3,5C000400,-0724,0826,12318,029.7,045.5,0.252,737.6,01.18,0.508
2016-08-25 00:58:00,2014E-3,5C000400,-0724,0826,12290,029.6,045.5,0.251,737.7,01.18,0.508
2016-08-25 00:59:00,2142E-3,5C000400,-0723,0826,12418,029.7,045.5,0.252,737.6,01.18,0.508
2016-08-25 01:00:00,2097E-3,5C000400,-0723,0826,12256,029.7,045.5,0.251,737.7,01.18,0.508
2016-08-25 01:01:00,2080E-3,5C000400,-0724,0826,12244,029.7,045.5,0.252,737.6,01.18,0.508
2016-08-25 01:02:00,2108E-3,5C000400,-0724,0825,12194,029.7,045.5,0.252,737.6,01.18,0.508
2016-08-25 01:03:00,2078E-3,5C000400,-0724,0826,12216,029.7,045.5,0.252,737.7,01.18,0.508
2016-08-25 01:04:00,2028E-3,5C000400,-0724,0826,12225,029.7,045.5,0.251,737.7,01.18,0.508
2016-08-25 01:05:00,2068E-3,5C000400,-0723,0825,12291,029.7,045.5,0.252,737.7,01.18,0.508
2016-08-25 01:06:00,2034E-3,5C000400,-0724,0826,12132,029.7,045.5,0.252,737.7,01.18,0.508
2016-08-25 01:07:00,2066E-3,5C000400,-0724,0826,12282,029.7,045.5,0.251,737.7,01.18,0.508
2016-08-25 01:08:00,2132E-3,5C000400,-0724,0826,12134,029.7,045.5,0.252,737.6,01.18,0.508
2016-08-25 01:09:00,2104E-3,5C000400,-0724,0826,12279,029.7,045.5,0.252,737.6,01.18,0.508
2016-08-25 01:10:00,2020E-3,5C000400,-0724,0827,12250,029.7,045.5,0.252,737.6,01.18,0.508
2016-08-25 01:11:00,2086E-3,5C000400,-0723,0826,12198,029.7,045.5,0.251,737.6,01.18,0.508
2016-08-25 01:12:00,2112E-3,5C000400,-0724,0825,12108,029.7,045.5,0.252,737.6,01.18,0.508
2016-08-25 01:13:00,1983E-3,5C000400,-0723,0825,12224,029.7,045.5,0.252,737.6,01.18,0.508
2016-08-25 01:14:00,2112E-3,5C000400,-0724,0826,12187,029.7,045.5,0.251,737.6,01.18,0.508
2016-08-25 01:15:00,2020E-3,5C000400,-0723,0826,12150,029.7,045.5,0.251,737.6,01.18,0.508
2016-08-25 01:16:00,2042E-3,5C000400,-0724,0826,12330,029.7,045.5,0.252,737.6,01.18,0.508
2016-08-25 01:17:00,1903E-3,5C000400,-0724,0825,12289,029.7,045.5,0.252,737.5,01.18,0.508
2016-08-25 01:18:00,2076E-3,5C000400,-0724,0826,12225,029.7,045.5,0.251,737.5,01.18,0.508
2016-08-25 01:19:00,1971E-3,5C000400,-0723,0826,12186,029.7,045.5,0.251,737.5,01.18,0.508
2016-08-25 01:20:00,2208E-3,5C000400,-0723,0825,12328,029.7,045.5,0.252,737.5,01.18,0.508
2016-08-25 01:21:00,1961E-3,5C000400,-0723,0825,12312,029.7,045.5,0.252,737.5,01.18,0.508
2016-08-25 01:22:00,2119E-3,5C000400,-0723,0825,12261,029.7,045.5,0.251,737.5,01.18,0.508
2016-08-25 01:23:00,2071E-3,5C000400,-0724,0825,12368,029.7,045.5,0.252,737.5,01.18,0.508
2016-08-25 01:24:00,2069E-3,5C000400,-0723,0826,12160,029.7,045.5,0.252,737.5,01.18,0.508
2016-08-25 01:25:00,2078E-3,5C000400,-0723,0826,12182,029.7,045.5,0.251,737.5,01.18,0.508
2016-08-25 01:26:00,2148E-3,5C000400,-0723,0827,12232,029.8,045.5,0.251,737.4,01.18,0.508
2016-08-25 01:27:00,2063E-3,5C000400,-0723,0826,12179,029.7,045.5,0.252,737.5,01.18,0.508
2016-08-25 01:28:00,2163E-3,5C000400,-0723,0826,12108,029.7,045.5,0.252,737.5,01.18,0.508
2016-08-25 01:29:00,2092E-3,5C000400,-0723,0826,12217,029.8,045.5,0.251,737.5,01.18,0.508
2016-08-25 01:30:00,2029E-3,5C000400,-0723,0826,12178,029.7,045.5,0.251,737.5,01.18,0.508
2016-08-25 01:31:00,1936E-3,5C000400,-0723,0826,12326,029.8,045.5,0.252,737.4,01.18,0.508
2016-08-25 01:32:00,1943E-3,5C000400,-0723,0826,12098,029.8,045.5,0.251,737.5,01.18,0.508
2016-08-25 01:33:00,2072E-3,5C000400,-0724,0826,12204,029.7,045.5,0.251,737.4,01.18,0.508
2016-08-25 01:34:00,2156E-3,5C000400,-0723,0825,12135,029.8,045.5,0.251,737.4,01.18,0.508
2016-08-25 01:35:00,2056E-3,5C000400,-0724,0826,12358,029.8,045.5,0.252,737.4,01.18,0.508
2016-08-25 01:36:00,2042E-3,5C000400,-0723,0826,12137,029.8,045.5,0.251,737.4,01.18,0.508
2016-08-25 01:37:00,1953E-3,5C000400,-0724,0826,12350,029.8,045.5,0.251,737.4,01.18,0.508
2016-08-25 01:38:00,2027E-3,5C000400,-0723,0826,12371,029.8,045.5,0.251,737.4,01.18,0.508
2016-08-25 01:39:00,2085E-3,5C000400,-0723,0826,12256,029.8,045.5,0.251,737.4,01.18,0.508
2016-08-25 01:40:00,2038E-3,5C000400,-0723,0826,12290,029.8,045.5,0.251,737.4,01.18,0.508
2016-08-25 01:41:00,2055E-3,5C000400,-0723,0825,12251,029.8,045.5,0.251,737.4,01.18,0.508
2016-08-25 01:42:00,2052E-3,5C000400,-0723,0827,12167,029.8,045.5,0.252,737.4,01.18,0.508
2016-08-25 01:43:00,2006E-3,5C000400,-0723,0826,12300,029.8,045.5,0.252,737.3,01.18,0.508
2016-08-25 01:44:00,2269E-3,5C000400,-0723,0826,12222,029.8,045.5,0.251,737.3,01.18,0.508
2016-08-25 01:45:00,2003E-3,5C000400,-0724,0826,12290,029.8,045.5,0.252,737.3,01.18,0.508
2016-08-25 01:46:00,2118E-3,5C000400,-0723,0826,12224,029.9,045.5,0.252,737.3,01.18,0.508
2016-08-25 01:47:00,2216E-3,5C000400,-0723,0826,12188,029.8,045.5,0.251,737.4,01.18,0.508
2016-08-25 01:48:00,2095E-3,5C000400,-0723,0826,12209,029.9,045.5,0.251,737.4,01.18,0.508
2016-08-25 01:49:00,2084E-3,5C000400,-0723,0826,12314,029.9,045.5,0.251,737.4,01.18,0.508
2016-08-25 01:50:00,2075E-3,5C000400,-0723,0826,12422,029.9,045.5,0.251,737.4,01.18,0.508
2016-08-25 01:51:00,2052E-3,5C000400,-0724,0826,12251,029.9,045.5,0.251,737.4,01.18,0.508
2016-08-25 01:52:00,2109E-3,5C000400,-0724,0825,12085,029.9,045.5,0.251,737.4,01.18,0.508
2016-08-25 01:53:00,2066E-3,5C000400,-0724,0826,12155,029.9,045.5,0.251,737.3,01.18,0.508
2016-08-25 01:54:00,1991E-3,5C000400,-0723,0826,12197,029.9,045.5,0.251,737.3,01.18,0.508
2016-08-25 01:55:00,2119E-3,5C000400,-0723,0826,12271,029.9,045.5,0.251,737.3,01.18,0.508
2016-08-25 01:56:00,2040E-3,5C000400,-0724,0826,12319,029.9,045.5,0.251,737.3,01.18,0.508
2016-08-25 01:57:00,2081E-3,5C000400,-0724,0826,12379,029.9,045.5,0.251,737.4,01.18,0.508
2016-08-25 01:58:00,1994E-3,5C000400,-0723,0826,12286,029.9,045.5,0.251,737.3,01.18,0.508
2016-08-25 01:59:00,2161E-3,5C000400,-0723,0826,12137,029.9,045.5,0.251,737.3,01.18,0.508
2016-08-25 02:00:00,2106E-3,5C000400,-0723,0826,12246,029.9,045.5,0.251,737.3,01.18,0.508
2016-08-25 02:01:00,2100E-3,5C000400,-0724,0826,12282,029.9,045.5,0.251,737.3,01.18,0.508
2016-08-25 02:02:00,1927E-3,5C000400,-0724,0826,12248,029.9,045.5,0.251,737.3,01.18,0.508
2016-08-25 02:03:00,2038E-3,5C000400,-0724,0826,12261,029.9,045.5,0.251,737.3,01.18,0.508
2016-08-25 02:04:00,1954E-3,5C000400,-0723,0825,12168,029.9,045.5,0.251,737.3,01.18,0.508
2016-08-25 02:05:00,2087E-3,5C000400,-0723,0826,12226,029.9,045.5,0.251,737.3,01.18,0.508
2016-08-25 02:06:00,2110E-3,5C000400,-0723,0826,12113,029.9,045.5,0.251,737.3,01.18,0.508
2016-08-25 02:07:00,2092E-3,5C000400,-0723,0826,12179,029.9,045.5,0.251,737.3,01.18,0.508
2016-08-25 02:08:00,2105E-3,5C000400,-0723,0825,12164,030.0,045.5,0.251,737.2,01.18,0.508
2016-08-25 02:09:00,2079E-3,5C000400,-0723,0826,12332,030.0,045.5,0.251,737.3,01.18,0.508
2016-08-25 02:10:00,2202E-3,5C000400,-0723,0826,12177,030.0,045.5,0.251,737.3,01.18,0.508
2016-08-25 02:11:00,2035E-3,5C000400,-0723,0826,12154,030.0,045.5,0.251,737.3,01.18,0.508
2016-08-25 02:12:00,2022E-3,5C000400,-0723,0826,12314,030.0,045.5,0.251,737.3,01.18,0.508
2016-08-25 02:13:00,2100E-3,5C000400,-0723,0825,12194,030.0,045.5,0.251,737.3,01.18,0.508
2016-08-25 02:14:00,2032E-3,5C000400,-0723,0825,12265,030.0,045.5,0.251,737.3,01.18,0.508
2016-08-25 02:15:00,1921E-3,5C000400,-0723,0825,12062,030.0,045.5,0.251,737.3,01.18,0.508
2016-08-25 02:16:00,2075E-3,5C000400,-0723,0825,12186,030.0,045.5,0.251,737.2,01.18,0.508
2016-08-25 02:17:00,2118E-3,5C000400,-0723,0826,12404,030.0,045.5,0.251,737.2,01.18,0.508
2016-08-25 02:18:00,2049E-3,5C000400,-0723,0825,12160,030.0,045.5,0.251,737.2,01.18,0.508
2016-08-25 02:19:00,2197E-3,5C000400,-0724,0825,12243,030.0,045.5,0.251,737.2,01.18,0.508
2016-08-25 02:20:00,1953E-3,5C000400,-0723,0825,12259,030.0,045.5,0.251,737.2,01.18,0.508
2016-08-25 02:21:00,2210E-3,5C000400,-0723,0826,12263,030.0,045.5,0.251,737.2,01.18,0.508
2016-08-25 02:22:00,2159E-3,5C000400,-0723,0826,12372,030.0,045.5,0.251,737.2,01.18,0.508
2016-08-25 02:23:00,2029E-3,5C000400,-0723,0826,12259,030.0,045.5,0.251,737.2,01.18,0.508
2016-08-25 02:24:00,1976E-3,5C000400,-0723,0826,12152,030.1,045.5,0.251,737.2,01.18,0.508
2016-08-25 02:25:00,2013E-3,5C000400,-0723,0826,12335,030.1,045.5,0.251,737.2,01.18,0.508
2016-08-25 02:26:00,1940E-3,5C000400,-0723,0826,12256,030.1,045.5,0.251,737.2,01.18,0.508
2016-08-25 02:27:00,2172E-3,5C000400,-0723,0825,12234,030.1,045.5,0.251,737.2,01.18,0.508
2016-08-25 02:28:00,1979E-3,5C000400,-0723,0826,12123,030.1,045.5,0.251,737.2,01.18,0.508
2016-08-25 02:29:00,1963E-3,5C000400,-0723,0825,12238,030.1,045.5,0.251,737.2,01.18,0.508
2016-08-25 02:30:00,2193E-3,5C000400,-0723,0825,12185,030.1,045.5,0.251,737.2,01.18,0.508
2016-08-25 02:31:00,2051E-3,5C000400,-0723,0826,12254,030.1,045.5,0.251,737.2,01.18,0.508
2016-08-25 02:32:00,1998E-3,5C000400,-0723,0826,12229,030.1,045.5,0.251,737.2,01.18,0.508
2016-08-25 02:33:00,2217E-3,5C000400,-0723,0826,12173,030.1,045.5,0.251,737.2,01.18,0.508
2016-08-25 02:34:00,2110E-3,5C000400,-0723,0825,12280,030.1,045.5,0.250,737.2,01.18,0.508
2016-08-25 02:35:00,2002E-3,5C000400,-0723,0826,12201,030.1,045.5,0.251,737.2,01.18,0.508
2016-08-25 02:36:00,1960E-3,5C000400,-0723,0826,12337,030.1,045.5,0.251,737.2,01.18,0.508
2016-08-25 02:37:00,2035E-3,5C000400,-0723,0826,12280,030.1,045.5,0.251,737.2,01.18,0.508
2016-08-25 02:38:00,2136E-3,5C000400,-0723,0826,12243,030.1,045.5,0.251,737.2,01.18,0.508
2016-08-25 02:39:00,2124E-3,5C000400,-0723,0825,12268,030.1,045.5,0.251,737.2,01.18,0.508
2016-08-25 02:40:00,2092E-3,5C000400,-0723,0826,12215,030.1,045.5,0.251,737.2,01.18,0.508
2016-08-25 02:41:00,2167E-3,5C000400,-0723,0827,12266,030.1,045.5,0.250,737.2,01.18,0.508
2016-08-25 02:42:00,2173E-3,5C000400,-0723,0826,12272,030.2,045.5,0.251,737.2,01.18,0.508
2016-08-25 02:43:00,1943E-3,5C000400,-0723,0826,12133,030.2,045.5,0.251,737.1,01.18,0.508
2016-08-25 02:44:00,1958E-3,5C000400,-0723,0827,12340,030.2,045.5,0.251,737.1,01.18,0.508
2016-08-25 02:45:00,1956E-3,5C000400,-0723,0826,12375,030.2,045.5,0.251,737.1,01.18,0.508
2016-08-25 02:46:00,2101E-3,5C000400,-0723,0825,12112,030.2,045.5,0.251,737.1,01.18,0.508
2016-08-25 02:47:00,2048E-3,5C000400,-0723,0826,12180,030.2,045.5,0.251,737.1,01.18,0.508
2016-08-25 02:48:00,1934E-3,5C000400,-0723,0827,12210,030.2,045.5,0.251,737.1,01.18,0.508
2016-08-25 02:49:00,2030E-3,5C000400,-0723,0826,12093,030.2,045.5,0.250,737.1,01.18,0.508
2016-08-25 02:50:00,2129E-3,5C000400,-0723,0825,12153,030.2,045.5,0.251,737.1,01.18,0.508
2016-08-25 02:51:00,2093E-3,5C000400,-0723,0826,12215,030.2,045.5,0.251,737.0,01.18,0.508
2016-08-25 02:52:00,2058E-3,5C000400,-0723,0826,12218,030.3,045.5,0.250,737.1,01.18,0.508
2016-08-25 02:53:00,2091E-3,5C000400,-0723,0826,12210,030.2,045.5,0.250,737.0,01.18,0.508
2016-08-25 02:54:00,2047E-3,5C000400,-0723,0826,12300,030.2,045.5,0.251,737.0,01.18,0.508
2016-08-25 02:55:00,2109E-3,5C000400,-0723,0826,12248,030.2,045.5,0.251,737.1,01.18,0.508
2016-08-25 02:56:00,2056E-3,5C000400,-0723,0826,12327,030.3,045.5,0.250,737.0,01.18,0.508
2016-08-25 02:57:00,2172E-3,5C000400,-0723,0827,12157,030.3,045.5,0.251,737.0,01.18,0.508
2016-08-25 02:58:00,2008E-3,5C000400,-0723,0826,12060,030.3,045.5,0.251,737.0,01.18,0.508
2016-08-25 02:59:00,2036E-3,5C000400,-0723,0826,12277,030.3,045.5,0.250,737.0,01.18,0.508
2016-08-25 03:00:00,2069E-3,5C000400,-0723,0827,12300,030.3,045.5,0.250,737.0,01.18,0.508
2016-08-25 03:01:00,2037E-3,5C000400,-0723,0826,12360,030.3,045.5,0.251,737.0,01.18,0.508
2016-08-25 03:02:00,2054E-3,5C000400,-0723,0827,12251,030.3,045.5,0.251,737.0,01.18,0.508
2016-08-25 03:03:00,2013E-3,5C000400,-0723,0826,12155,030.3,045.5,0.250,737.0,01.18,0.508
2016-08-25 03:04:00,2198E-3,5C000400,-0723,0826,12238,030.3,045.5,0.250,737.0,01.18,0.508
2016-08-25 03:05:00,2121E-3,5C000400,-0723,0826,12157,030.3,045.5,0.251,737.0,01.18,0.508
2016-08-25 03:06:00,2081E-3,5C000400,-0723,0826,12325,030.3,045.5,0.250,737.0,01.18,0.508
2016-08-25 03:07:00,2092E-3,5C000400,-0723,0826,12375,030.3,045.5,0.250,737.0,01.18,0.508
2016-08-25 03:08:00,2058E-3,5C000400,-0723,0826,12250,030.3,045.5,0.250,737.0,01.18,0.508
2016-08-25 03:09:00,2124E-3,5C000400,-0723,0826,12218,030.3,045.5,0.250,737.0,01.18,0.508
2016-08-25 03:10:00,2110E-3,5C000400,-0723,0826,12175,030.3,045.5,0.250,737.0,01.18,0.508
2016-08-25 03:11:00,2072E-3,5C000400,-0723,0826,12086,030.4,045.5,0.250,737.0,01.18,0.508
2016-08-25 03:12:00,2070E-3,5C000400,-0723,0826,12293,030.4,045.5,0.250,737.0,01.18,0.508
2016-08-25 03:13:00,2007E-3,5C000400,-0723,0826,12138,030.3,045.5,0.250,737.0,01.18,0.508
2016-08-25 03:14:00,2099E-3,5C000400,-0723,0826,12267,030.4,045.5,0.250,737.0,01.18,0.508
2016-08-25 03:15:00,2071E-3,5C000400,-0723,0827,12241,030.4,045.5,0.250,737.0,01.18,0.508
2016-08-25 03:16:00,1944E-3,5C000400,-0723,0827,12152,030.4,045.5,0.251,737.0,01.18,0.508
2016-08-25 03:17:00,2036E-3,5C000400,-0723,0826,12200,030.4,045.5,0.250,737.0,01.18,0.508
2016-08-25 03:18:00,2147E-3,5C000400,-0723,0826,12230,030.4,045.5,0.250,737.0,01.18,0.508
2016-08-25 03:19:00,2075E-3,5C000400,-0723,0826,12141,030.4,045.5,0.250,736.9,01.18,0.508
2016-08-25 03:20:00,2008E-3,5C000400,-0723,0826,12264,030.4,045.5,0.250,737.0,01.18,0.508
2016-08-25 03:21:00,1969E-3,5C000400,-0723,0826,12242,030.4,045.5,0.250,737.0,01.18,0.508
2016-08-25 03:22:00,2142E-3,5C000400,-0723,0826,12238,030.4,045.5,0.250,737.0,01.18,0.508
2016-08-25 03:23:00,1960E-3,5C000400,-0723,0826,12201,030.4,045.5,0.250,736.9,01.18,0.508
2016-08-25 03:24:00,2022E-3,5C000400,-0723,0825,12203,030.4,045.5,0.250,736.9,01.18,0.508
2016-08-25 03:25:00,2092E-3,5C000400,-0723,0825,12235,030.4,045.5,0.250,737.0,01.18,0.508
2016-08-25 03:26:00,2188E-3,5C000400,-0723,0826,12137,030.4,045.5,0.250,737.0,01.18,0.508
2016-08-25 03:27:00,2191E-3,5C000400,-0723,0827,12315,030.5,045.5,0.250,737.0,01.18,0.508
2016-08-25 03:28:00,2041E-3,5C000400,-0723,0826,12206,030.5,045.5,0.250,737.0,01.18,0.508
2016-08-25 03:29:00,2051E-3,5C000400,-0723,0826,12226,030.4,045.5,0.250,736.9,01.18,0.508
2016-08-25 03:30:00,1935E-3,5C000400,-0723,0826,12225,030.4,045.5,0.250,736.9,01.18,0.508
2016-08-25 03:31:00,2009E-3,5C000400,-0723,0827,12130,030.4,045.5,0.250,736.9,01.18,0.508
2016-08-25 03:32:00,2115E-3,5C000400,-0723,0826,12216,030.5,045.5,0.250,736.9,01.18,0.508
2016-08-25 03:33:00,2031E-3,5C000400,-0723,0826,12215,030.5,045.5,0.250,736.9,01.18,0.508
2016-08-25 03:34:00,2131E-3,5C000400,-0723,0826,12210,030.5,045.5,0.250,736.9,01.18,0.508
2016-08-25 03:35:00,2134E-3,5C000400,-0723,0826,12240,030.5,045.5,0.250,736.9,01.18,0.508
2016-08-25 03:36:00,1931E-3,5C000400,-0723,0826,12265,030.5,045.5,0.250,736.9,01.18,0.508
2016-08-25 03:37:00,2015E-3,5C000400,-0723,0826,12376,030.5,045.5,0.250,736.9,01.18,0.508
2016-08-25 03:38:00,1966E-3,5C000400,-0723,0826,12131,030.5,045.5,0.250,736.9,01.18,0.508
2016-08-25 03:39:00,2209E-3,5C000400,-0723,0826,12278,030.5,045.5,0.250,736.9,01.18,0.508
2016-08-25 03:40:00,2029E-3,5C000400,-0723,0825,12228,030.5,045.5,0.250,736.9,01.18,0.508
2016-08-25 03:41:00,2171E-3,5C000400,-0723,0827,12131,030.5,045.5,0.250,736.9,01.18,0.508
2016-08-25 03:42:00,2244E-3,5C000400,-0723,0826,12336,030.5,045.5,0.250,737.0,01.18,0.508
2016-08-25 03:43:00,2075E-3,5C000400,-0723,0826,12265,030.5,045.5,0.250,737.0,01.18,0.508
2016-08-25 03:44:00,2053E-3,5C000400,-0723,0826,12255,030.5,045.5,0.250,736.9,01.18,0.508
2016-08-25 03:45:00,2043E-3,5C000400,-0723,0826,12187,030.5,045.5,0.250,736.9,01.18,0.508
2016-08-25 03:46:00,2058E-3,5C000400,-0723,0827,12224,030.5,045.5,0.250,737.0,01.18,0.508
2016-08-25 03:47:00,1957E-3,5C000400,-0723,0827,12266,030.5,045.5,0.250,737.0,01.18,0.508
2016-08-25 03:48:00,2066E-3,5C000400,-0723,0827,12295,030.5,045.5,0.250,737.0,01.18,0.508
2016-08-25 03:49:00,2070E-3,5C000400,-0723,0826,12117,030.6,045.5,0.250,737.0,01.18,0.508
2016-08-25 03:50:00,2109E-3,5C000400,-0723,0826,12138,030.6,045.5,0.250,737.0,01.18,0.508
2016-08-25 03:51:00,2038E-3,5C000400,-0723,0826,12348,030.5,045.5,0.250,737.0,01.18,0.508
2016-08-25 03:52:00,2095E-3,5C000400,-0723,0826,12321,030.6,045.5,0.250,737.0,01.18,0.508
2016-08-25 03:53:00,2107E-3,5C000400,-0723,0825,12284,030.6,045.5,0.250,737.0,01.18,0.508
2016-08-25 03:54:00,2132E-3,5C000400,-0723,0826,12118,030.6,045.5,0.250,737.0,01.18,0.508
2016-08-25 03:55:00,2227E-3,5C000400,-0723,0826,12285,030.5,045.5,0.250,737.0,01.18,0.508
2016-08-25 03:56:00,2087E-3,5C000400,-0723,0826,12193,030.6,045.5,0.250,737.0,01.18,0.508
2016-08-25 03:57:00,2167E-3,5C000400,-0723,0826,12274,030.6,045.5,0.250,737.0,01.18,0.508
2016-08-25 03:58:00,2187E-3,5C000400,-0723,0825,12326,030.6,045.5,0.250,737.0,01.18,0.508
2016-08-25 03:59:00,2092E-3,5C000400,-0723,0827,12337,030.6,045.5,0.250,737.0,01.18,0.508
2016-08-25 04:00:00,2135E-3,5C000400,-0723,0827,12286,030.6,045.5,0.250,737.0,01.18,0.508
2016-08-25 04:01:00,1985E-3,5C000400,-0723,0826,12241,030.6,045.5,0.250,737.0,01.18,0.508
2016-08-25 04:02:00,2082E-3,5C000400,-0723,0825,12380,030.6,045.5,0.250,737.0,01.18,0.508
2016-08-25 04:03:00,2005E-3,5C000400,-0723,0827,12070,030.6,045.5,0.250,737.0,01.18,0.508
2016-08-25 04:04:00,2020E-3,5C000400,-0723,0827,12242,030.6,045.5,0.250,737.1,01.18,0.508
2016-08-25 04:05:00,2013E-3,5C000400,-0723,0826,12214,030.6,045.5,0.250,737.0,01.18,0.508
2016-08-25 04:06:00,2054E-3,5C000400,-0723,0826,12359,030.6,045.5,0.250,737.0,01.18,0.508
2016-08-25 04:07:00,2041E-3,5C000400,-0723,0827,12197,030.6,045.5,0.250,737.0,01.18,0.508
2016-08-25 04:08:00,2106E-3,5C000400,-0723,0825,12314,030.7,045.5,0.250,737.0,01.18,0.508
2016-08-25 04:09:00,2095E-3,5C000400,-0723,0826,12142,030.7,045.5,0.250,737.0,01.18,0.508
2016-08-25 04:10:00,1991E-3,5C000400,-0723,0826,12306,030.6,045.5,0.250,737.0,01.18,0.508
2016-08-25 04:11:00,2075E-3,5C000400,-0723,0826,12244,030.7,045.5,0.250,737.0,01.18,0.508
2016-08-25 04:12:00,2174E-3,5C000400,-0723,0826,12229,030.7,045.5,0.250,737.0,01.18,0.508
2016-08-25 04:13:00,1989E-3,5C000400,-0723,0827,12245,030.7,045.5,0.250,737.0,01.18,0.508
2016-08-25 04:14:00,2095E-3,5C000400,-0723,0826,12268,030.7,045.5,0.250,737.0,01.18,0.508
2016-08-25 04:15:00,2111E-3,5C000400,-0723,0826,12260,030.7,045.5,0.250,737.0,01.18,0.508
2016-08-25 04:16:00,2034E-3,5C000400,-0723,0826,12312,030.7,045.5,0.249,736.9,01.18,0.508
2016-08-25 04:17:00,2085E-3,5C000400,-0723,0827,12145,030.7,045.5,0.250,736.9,01.18,0.508
2016-08-25 04:18:00,2045E-3,5C000400,-0723,0826,12231,030.7,045.5,0.250,736.9,01.18,0.508
2016-08-25 04:19:00,2135E-3,5C000400,-0723,0826,12306,030.7,045.5,0.250,736.9,01.18,0.508
2016-08-25 04:20:00,2193E-3,5C000400,-0723,0827,12161,030.7,045.5,0.249,737.0,01.18,0.508